Regional Weather Roundup
Issued by NWS Lake Charles, LA

Home | Current Version | Previous Version | Text Only | Print | Product List | Glossary On
Versions: 1 2 3 4 5 6 7 8 9 10 11 12 13 14 15 16 17 18 19 20 21 22 23 24 25 26 27 28 29 30 31 32 33 34 35 36 37 38 39 40 41 42 43 44 45 46 47 48 49 50
000
ASUS44 KLCH 281710
RWRLCH
RWRLCH
REGIONAL WEATHER ROUNDUP
NATIONAL WEATHER SERVICE LAKE CHARLES LA
1200 PM CDT MON JUL 28 2014

Note: "fair" indicates few or no clouds below 12,000 feet with no
significant weather and/or obstructions to visibility.


ACROSS SOUTHEAST TEXAS

CITY           SKY/WX    TMP DP  RH WIND       PRES   REMARKS
BEAUMONT       MOSUNNY   90  75  61 W9        30.11F HX 100
BEAUMONT CITY    N/A     89  75  62 W8        30.12F
ORANGE         SUNNY     88  73  59 W8        30.13S
JASPER         MOSUNNY   88  72  58 W8        30.14F
$$

ACROSS CENTRAL LOUISIANA

CITY           SKY/WX    TMP DP  RH WIND       PRES   REMARKS
LEESVILLE      SUNNY     88  71  57 NW9       30.11F
FULLERTON        N/A     91  72  53 VRB5      30.08F
ALEXANDRIA INT PTSUNNY   90  72  55 W6        30.07F
ESLER FIELD    PTSUNNY   92  75  57 NW9       30.08F HX 103
DERIDDER         N/A     89  71  56 W5        30.13F
OAKDALE        MOSUNNY   89  75  63 NW8       30.10F
OPELOUSAS        N/A     88  76  68 W8        30.09F
$$

ACROSS SOUTHWEST AND SOUTH CENTRAL LOUISIANA

CITY           SKY/WX    TMP DP  RH WIND       PRES   REMARKS
SULPHUR        SUNNY     91  74  58 W8        30.12S HX 100
LAKE CHARLES   SUNNY     91  73  55 VRB7      30.11F
CHENNAULT INT  MOSUNNY   91  72  52 W10       30.11F
CAMERON PHI    SUNNY     88  77  70 W9G17     30.12S HX 100
DEQUINCY         N/A     88  73  60 NW7       30.11F
JENNINGS         N/A     89  76  64 W9        30.10F
LAFAYETTE      NOT AVBL
NEW IBERIA     MOSUNNY   90  76  63 W10       30.11F HX 101
ABBEVILLE      PTSUNNY   88  76  66 W7        30.10F
PATTERSON      MOSUNNY   91  75  59 NW9       30.14S HX 102
SALT POINT       N/A     89  79  72 VRB7      30.10S HX 104
$$

SELECTED SITES ACROSS THE REGION

CITY           SKY/WX    TMP DP  RH WIND       PRES   REMARKS
HOUSTON BUSH   MOSUNNY   90  73  57 NW7       30.12F
HOUSTON HOBBY  MOSUNNY   89  71  55 W10       30.12S
GALVESTON      MOSUNNY   90  75  61 VRB3      30.13S HX 100
COLLEGE STAT   SUNNY     87  73  62 SW7       30.14F
CONROE         SUNNY     87  74  64 W8        30.14F
HUNTSVILLE     SUNNY     87  74  64 SW8       30.14F
LUFKIN         MOSUNNY   91  72  53 W7        30.13S
SHREVEPORT     PTSUNNY   88  74  63 N5        30.09F
MONROE         MOSUNNY   86  73  65 N9        30.09S
NATCHEZ MS     CLOUDY    82  75  78 NW7       30.10S
BATON ROUGE    PTSUNNY   91  77  63 W12       30.09S HX 104
N.O. INTL ARPT PTSUNNY   91  74  57 W12       30.07F HX 100
SLIDELL        MOSUNNY   90  77  65 SW7       30.05F HX 103
$$

MARINE REPORTS

STATION/POSITION TIME  TEMP    WIND        PRES    VSBY  WAVE
                       AIR SEA DIR/SP/G                  HT/PER
                 (UTC) (F)     (DEG/KT/KT) (MB)    (MI)  (FT/S)
BUOY 30 S HIGH I 1700          270/  8       N/A
SEA RIM ST PARK  1700   86     220/ 10/ 12 1020.1F
PORT ARTHUR      1700      87  280/  9/ 12 1019.8F
SABINE PASS N    1700   88 87  260/  6/ 12 1019.9F
TEXAS POINT      1700   86 87  220/ 11/ 14 1020.0S
CALCASIEU PASS   1700   85 88  260/ 12/ 15 1021.0F
LK CHARLES BEACH 1700   87 87              1020.3F
MARSH ISLAND     1600   85     290/ 13/ 15   N/A
FRESH WATER LOCK 1700   87 86  230/ 12/ 15 1019.4F
AMERADA PASS     1700   86 84  280/  8/ 12 1019.5F
$$



USA.gov is the U.S. government's official web portal to all federal, state and local government web resources and services.